Location: Unspecified
(0.0000°N, 0.0000°E)
Time: 22:49:01
(UTC+02:00)

Cosmos 1833 Rocket - Visible Passes

Search period start: 01 July 2016 00:00
Search period end: 11 July 2016 00:00
Orbit: 834 x 839 km, 71.0° (Epoch: 01 July)

Date Brightness Start Highest point End Pass type
(mag) Time Alt. Az. Time Alt. Az. Time Alt. Az.
01 Jul 3.0 06:19:46 10° N 06:25:19 66° ENE 06:30:53 10° SSE visible
02 Jul 3.2 06:03:10 10° N 06:08:39 59° ENE 06:14:10 10° SSE visible
03 Jul 3.4 05:46:34 10° N 05:51:59 52° ENE 05:57:26 10° SSE visible
04 Jul 3.6 05:30:01 10° N 05:35:07 46° ENE 05:35:07 46° ENE visible
05 Jul 4.9 05:13:27 10° N 05:14:58 18° NNE 05:14:58 18° NNE visible
